Wind_Speed
15 15 16 16 16 16 17 17 17 17 17 17 17 16 17 17 17 17 17 17 17 17 17 17 17 17 16 17 18 19 21 21 21 22 27 23 15 13 13 19 16 13 17 17 14 15 20 23 24 23 20 18 18 19 18 18 19 12 4 3 5 3 3 2 2 3 3 1 2 14 21 16 13 19 24 24 23 28 23 16 20 13 18 31 30 35 36 31
17 17 18 18 18 17 17 17 18 18 18 18 17 17 17 17 18 17 18 18 18 18 17 18 17 17 16 17 17 18 20 21 23 25 23 14 13 16 19 23 18 14 16 21 19 19 23 26 26 25 22 19 17 19 16 13 16 11 4 3 6 5 5 6 5 4 4 1 1 13 24 21 19 25 26 19 16 22 18 14 20 20 22 26 32 37 33 34
18 19 19 19 19 18 18 18 18 18 18 19 19 19 18 18 18 18 18 18 18 18 18 17 17 17 16 16 16 17 19 20 24 20 10 6 12 18 24 27 22 17 16 20 19 18 23 24 24 25 22 17 18 18 14 12 12 11 7 3 8 8 4 9 10 6 8 6 5 12 20 22 25 30 24 18 17 18 15 18 23 24 28 30 34 37 35 36
19 19 19 19 19 19 19 19 19 19 19 19 19 19 19 19 19 19 18 18 18 18 18 18 17 16 15 16 16 16 17 18 17 8 6 8 7 12 25 28 23 19 16 17 16 14 18 20 22 24 19 14 19 17 13 15 10 7 9 6 11 9 4 11 14 11 13 12 9 14 16 18 27 29 25 23 17 10 16 28 32 33 36 36 36 38 38 37
20 20 20 19 19 19 19 19 19 20 20 20 20 20 20 20 19 19 19 19 19 18 19 19 18 15 15 16 15 14 13 9 6 2 6 7 4 7 23 27 22 19 16 15 16 15 16 19 20 20 15 11 14 12 14 22 15 5 10 14 17 14 5 12 20 17 19 15 10 16 14 17 25 23 28 29 15 12 24 34 39 42 43 41 40 39 37 38
21 21 21 21 20 20 20 20 20 20 20 21 21 21 21 20 20 20 20 20 19 19 19 19 18 15 14 14 14 14 7 4 6 4 1 5 6 7 16 21 21 18 16 15 17 18 20 21 19 18 14 9 10 11 15 22 18 8 10 17 23 23 10 13 25 23 24 17 11 17 16 21 20 14 30 32 17 22 34 38 40 43 45 44 43 40 39 40
21 21 21 22 21 22 22 21 21 21 21 21 21 21 21 21 21 20 20 20 19 19 19 19 19 16 15 14 14 12 10 15 14 7 6 3 4 6 11 13 14 14 16 17 20 21 24 25 21 20 13 8 10 13 20 20 19 14 10 13 20 26 20 17 26 27 27 20 15 19 19 20 15 12 25 25 19 29 35 38 41 42 44 43 43 41 40 41
21 21 21 21 22 22 22 22 22 22 22 22 22 21 21 21 21 21 20 20 20 19 19 19 18 17 15 13 12 11 15 19 9 8 13 8 7 8 8 10 9 11 14 16 21 23 25 25 24 21 10 10 13 13 20 17 14 14 11 11 14 20 26 23 26 30 28 21 20 20 19 20 18 18 19 20 25 34 37 38 41 42 43 42 43 42 40 41
22 22 22 22 22 22 23 23 23 23 23 23 22 22 21 21 20 20 20 20 20 18 19 19 18 18 16 14 10 9 13 9 1 7 13 15 15 14 12 12 11 12 13 14 18 21 24 24 26 23 12 15 17 14 17 10 7 10 11 12 10 14 25 25 22 30 27 21 23 18 13 16 21 19 13 26 37 37 39 39 40 43 41 40 41 40 40 41
24 23 23 23 23 23 23 23 24 24 24 24 23 22 21 21 20 20 20 20 20 19 19 18 18 17 16 14 5 5 11 5 3 7 10 15 19 20 19 17 14 14 14 15 16 20 25 27 28 25 16 16 15 16 17 9 8 12 12 12 11 13 23 27 22 26 25 20 26 18 8 14 25 18 7 25 43 40 40 39 40 43 40 40 39 38 39 40
24 24 24 24 24 24 24 24 24 24 25 25 24 23 21 20 20 20 20 21 20 18 18 18 18 16 17 15 8 11 12 3 1 4 6 10 17 21 20 18 18 18 17 16 17 19 24 29 28 19 11 10 11 15 17 15 15 18 16 11 12 16 17 22 22 22 20 16 25 20 9 14 20 16 13 28 43 44 43 40 40 41 39 39 38 37 38 38
25 25 24 24 24 24 24 24 24 24 25 25 25 23 21 20 19 20 21 21 20 18 17 18 17 17 17 17 22 21 11 6 4 5 6 8 12 15 15 17 17 19 19 18 19 19 19 27 28 18 11 8 7 8 13 18 18 17 12 7 9 11 9 14 19 22 16 13 24 18 9 9 10 15 27 37 42 44 44 41 40 39 38 38 36 37 37 38
26 26 25 25 25 24 25 24 24 25 25 26 25 23 21 20 19 20 21 20 19 17 16 16 17 18 15 19 32 28 17 17 19 16 14 13 13 14 16 17 12 12 16 14 15 17 17 24 26 23 22 14 8 9 15 20 17 13 7 3 5 6 6 8 14 21 15 16 28 19 6 6 7 20 34 38 40 41 39 38 39 38 37 37 36 37 37 37
26 26 26 26 25 25 25 24 25 25 25 26 25 23 21 19 19 20 20 20 19 17 16 15 15 15 14 24 36 29 22 22 22 23 20 17 18 18 19 20 13 9 12 11 9 12 14 18 22 22 24 19 15 16 16 14 10 7 5 3 3 3 6 6 6 13 11 19 32 19 4 6 9 22 35 39 42 40 36 36 37 37 37 37 36 37 37 37
27 27 27 26 26 25 25 25 24 24 25 25 24 22 20 19 20 20 18 18 17 16 16 14 13 12 13 29 35 25 19 19 21 22 20 20 22 22 22 23 19 11 11 14 10 10 10 13 19 18 18 20 17 13 8 6 4 1 3 5 3 2 6 8 5 9 8 16 25 14 3 7 10 22 36 39 41 40 36 35 36 36 38 37 36 38 38 38
27 26 26 26 26 25 25 24 24 24 25 24 23 20 18 19 18 16 15 15 14 14 13 9 10 8 8 19 23 16 14 17 19 17 19 23 24 25 23 23 22 14 12 16 14 14 14 14 18 18 17 15 9 5 3 5 4 1 2 4 5 4 5 6 6 8 13 14 15 9 5 6 10 22 34 38 38 37 34 34 36 36 38 37 36 38 39 38
27 27 26 26 26 25 24 23 23 24 24 23 21 18 16 15 14 14 12 9 9 8 7 5 4 5 12 17 17 16 14 12 13 13 17 23 26 25 22 24 25 18 15 17 15 17 19 16 13 12 13 8 4 4 3 5 5 3 1 3 6 6 5 5 7 4 14 16 9 7 6 7 13 23 32 37 38 35 32 33 35 36 37 37 37 38 39 39
28 27 27 26 25 25 23 22 22 23 23 21 20 17 12 10 13 12 7 8 7 2 5 8 6 1 12 17 15 17 13 8 10 12 13 19 27 27 22 24 26 21 17 15 16 17 17 12 7 4 6 5 5 6 5 6 6 4 5 4 6 6 5 6 6 5 12 18 12 11 9 10 16 21 29 37 39 34 32 34 36 36 37 37 38 39 40 40
28 27 28 28 26 24 23 22 21 22 21 17 16 13 10 13 14 7 6 13 11 3 4 9 12 5 8 11 13 13 11 10 11 14 13 17 25 30 26 21 24 25 17 9 11 15 12 5 5 6 5 6 6 7 7 7 6 7 7 4 6 7 5 7 8 6 9 13 13 15 12 12 18 20 23 33 38 34 33 34 34 35 36 37 38 39 41 42
28 28 28 27 27 25 22 21 19 20 19 14 16 13 12 17 12 5 14 24 22 18 18 19 20 21 21 21 21 16 14 16 14 14 14 16 23 29 28 23 21 21 13 5 7 13 13 5 6 8 6 6 7 7 8 7 8 9 7 6 8 8 8 10 8 6 8 9 11 15 14 15 21 20 22 32 34 28 28 30 31 33 35 37 39 40 42 44
29 29 28 28 27 25 22 20 18 18 15 13 18 16 14 17 10 10 24 28 25 21 25 29 28 33 36 33 29 22 18 17 14 13 13 18 25 21 22 22 13 9 8 9 9 11 12 8 9 10 7 7 7 7 8 8 10 9 8 8 8 8 10 11 7 6 8 8 8 12 14 15 20 19 21 29 26 21 27 28 29 34 36 37 41 43 45 46
30 29 29 29 27 25 23 20 17 15 11 9 14 14 13 16 12 15 22 21 25 25 26 32 32 38 42 39 37 29 18 15 16 16 12 21 29 20 16 17 9 5 7 9 8 7 8 9 11 10 7 8 7 7 8 10 11 9 8 7 8 9 8 10 8 7 8 7 6 11 13 12 17 18 18 24 22 23 35 36 34 38 36 36 41 43 45 44
30 30 30 30 29 27 22 21 17 11 8 9 11 11 12 15 12 17 19 14 25 30 28 32 35 39 42 40 38 30 19 16 19 19 13 19 29 26 18 12 8 7 7 9 10 8 6 7 10 10 9 10 9 10 9 8 9 9 8 6 9 11 6 6 7 6 8 8 8 12 11 7 11 13 14 23 27 28 37 41 41 44 42 41 44 46 46 44
30 30 30 30 30 28 24 21 13 6 10 11 8 8 11 14 12 18 19 9 14 21 23 27 30 37 40 34 28 26 26 22 19 21 18 18 26 26 17 13 10 8 8 11 13 11 6 5 11 12 11 12 11 11 11 8 7 9 11 10 11 13 8 8 7 5 6 5 5 9 6 1 7 12 12 17 23 25 32 36 36 41 45 46 46 46 47 48
30 29 29 30 30 29 27 18 7 9 15 8 5 7 10 13 11 17 17 6 7 11 14 16 19 28 32 24 21 24 25 24 27 28 23 21 26 21 12 15 13 8 10 12 11 11 9 8 13 14 12 14 13 11 13 10 6 8 12 14 16 16 11 11 9 4 3 4 3 8 5 3 6 12 14 13 13 16 24 26 28 36 41 41 42 43 46 49
31 29 29 29 29 31 27 16 10 17 17 7 6 9 11 11 10 13 10 3 5 6 3 5 11 13 16 20 23 19 11 18 34 37 28 23 27 22 11 10 9 8 11 9 6 6 8 11 12 12 14 15 14 11 13 12 7 7 10 13 17 18 14 13 11 4 2 4 5 9 8 3 4 8 13 15 13 14 18 19 23 32 37 38 40 42 44 46
31 29 29 29 28 30 28 22 20 21 16 11 12 10 11 10 9 10 5 2 4 4 4 5 8 5 8 18 29 21 4 9 22 33 37 29 26 26 14 7 6 8 8 5 5 5 8 13 13 13 14 13 12 11 12 12 8 8 8 9 13 16 16 16 12 7 5 4 5 8 8 4 5 9 12 15 15 14 15 17 19 27 35 39 41 43 46 48
30 29 28 28 26 26 27 27 25 21 14 15 16 12 9 8 8 5 2 1 3 2 3 5 6 3 5 19 35 23 4 9 11 24 44 35 25 23 13 10 9 7 9 7 7 6 7 13 15 15 13 10 10 11 12 13 10 9 7 8 11 13 15 15 11 8 6 4 5 7 6 3 5 8 10 13 15 14 16 18 18 22 34 40 42 45 48 50
29 28 27 28 26 22 25 26 22 18 14 17 17 11 8 8 6 3 3 2 3 2 1 5 5 4 11 19 29 20 6 8 4 17 39 34 29 23 11 14 12 6 10 10 8 6 6 12 17 15 12 9 9 11 14 13 10 9 8 8 10 11 12 11 9 8 5 6 6 8 8 4 5 4 8 9 11 14 15 16 17 22 34 41 43 46 48 51
27 26 25 28 27 23 25 21 14 14 17 19 16 11 11 7 2 3 3 4 2 3 1 4 4 10 17 13 13 15 8 6 2 12 29 28 30 25 12 17 14 4 7 9 11 10 7 12 15 12 12 11 11 12 14 15 14 10 7 7 9 8 7 6 4 5 4 5 8 10 12 8 6 4 8 10 13 18 16 14 16 19 29 39 44 46 48 50
26 25 23 26 26 26 28 20 12 16 20 19 16 12 10 4 2 3 5 3 3 5 2 0 2 11 17 11 8 11 8 6 1 10 15 15 20 18 8 11 11 4 4 7 10 11 10 11 9 8 14 14 11 11 13 16 17 11 6 6 6 6 5 5 3 3 5 7 7 10 14 13 9 6 8 13 18 22 19 16 18 18 23 35 42 45 48 50
26 23 21 23 24 24 27 22 16 19 20 14 12 9 3 0 2 3 4 3 2 4 1 2 2 4 8 8 5 10 9 6 5 6 9 9 10 12 10 8 7 6 7 7 7 7 8 10 8 8 14 14 10 8 9 11 13 12 7 6 6 4 4 6 6 3 5 7 6 9 12 12 10 7 11 17 18 19 19 19 23 24 26 34 40 45 48 50
27 24 20 20 22 23 23 22 20 18 13 7 5 3 3 2 4 4 4 3 2 1 4 6 10 9 4 6 4 8 9 7 7 6 8 10 9 10 13 10 9 9 6 6 6 4 4 7 10 11 11 12 12 7 7 7 9 11 8 7 7 6 6 7 6 4 4 6 6 8 9 6 6 6 11 17 19 20 23 27 33 35 36 38 41 45 47 48
29 25 22 21 19 18 17 17 15 11 6 2 0 2 2 5 4 3 6 7 7 7 7 10 15 14 6 5 5 6 7 7 8 7 6 9 9 9 11 11 12 9 3 4 5 6 7 6 8 11 8 10 12 10 8 7 8 10 7 7 7 6 6 6 4 4 4 5 5 5 6 5 5 6 12 17 20 24 29 35 39 39 40 40 40 41 43 45
30 25 22 19 14 15 19 16 8 5 3 1 3 2 6 6 2 0 3 3 5 9 12 13 10 9 6 4 6 8 9 8 9 9 6 7 9 9 10 11 13 10 5 5 4 6 10 9 8 11 9 9 10 9 9 7 7 8 6 6 7 7 5 3 4 5 4 3 5 4 4 5 5 6 11 16 18 22 27 32 32 30 34 35 33 36 41 44
32 26 19 15 11 14 20 19 7 5 4 2 3 3 6 3 1 2 3 5 5 8 14 12 5 3 4 3 5 6 9 9 8 9 7 7 10 10 10 10 14 14 9 7 4 4 8 9 8 10 10 12 13 9 9 10 6 5 7 8 6 7 7 4 4 2 2 3 5 4 3 4 3 5 6 10 15 16 18 20 21 25 32 32 30 36 41 44
34 30 22 14 10 12 16 16 8 7 8 5 4 5 3 2 4 5 8 10 9 8 9 7 4 4 4 2 4 5 4 5 8 8 6 6 8 11 13 10 13 18 14 10 5 3 6 6 7 10 12 15 19 14 10 11 9 5 7 8 4 5 5 4 2 3 5 6 5 4 6 4 3 5 5 6 11 13 13 12 13 20 27 28 31 38 43 45
32 32 25 9 5 13 15 12 7 10 11 5 4 6 2 3 7 11 14 15 12 7 5 3 3 2 3 3 4 7 10 6 2 3 5 6 5 11 15 10 12 18 18 15 7 3 5 5 6 10 13 13 14 13 9 10 12 9 6 6 5 4 5 4 4 5 7 6 4 5 6 5 5 5 5 8 12 13 14 14 13 16 20 25 33 41 43 44
29 28 20 5 7 21 21 14 6 11 12 4 5 5 2 5 8 13 18 16 11 8 5 3 3 4 5 6 7 9 8 6 6 6 3 5 5 11 17 12 12 18 20 17 9 4 5 5 5 7 11 10 8 8 8 9 10 8 5 5 4 5 6 5 4 5 5 5 4 4 5 5 6 6 7 11 12 12 14 15 14 16 21 30 37 40 42 41
25 19 15 12 18 26 23 15 5 10 9 3 4 5 3 5 9 15 20 16 9 7 5 4 6 8 8 9 10 9 8 7 7 6 3 4 5 7 14 14 11 14 20 21 15 7 4 5 5 6 6 8 6 6 10 10 8 8 7 7 5 3 3 4 4 3 5 5 4 4 5 6 5 5 8 11 12 11 14 16 16 18 27 37 40 41 42 42
21 8 14 20 25 26 22 12 2 3 4 5 5 5 6 7 9 14 20 21 14 10 9 9 8 8 9 10 10 8 7 8 8 6 4 5 7 4 5 8 11 14 16 16 14 10 6 4 6 6 6 6 6 6 11 14 12 10 8 8 8 4 4 5 5 3 2 5 5 5 5 7 6 4 7 11 11 9 12 16 15 19 29 37 41 45 46 45
15 6 20 27 25 25 21 9 3 2 2 4 5 7 9 9 9 10 16 20 16 11 12 10 8 9 9 9 10 8 8 9 9 8 6 6 9 8 8 15 7 8 13 13 15 14 10 6 6 8 8 8 8 7 10 16 17 13 10 9 7 5 5 6 6 4 2 4 4 4 5 8 6 5 6 9 8 7 12 16 15 20 32 39 41 44 46 47
11 17 31 30 24 23 15 3 3 4 2 6 10 11 12 10 10 10 11 12 10 8 9 8 7 8 5 6 7 7 8 9 8 9 10 9 11 10 17 34 29 11 6 9 12 14 10 5 6 8 7 8 10 7 6 10 14 13 11 10 9 8 6 6 6 4 3 5 4 4 6 8 6 6 7 8 6 7 12 17 16 17 26 34 38 42 45 47
17 27 33 25 22 18 6 1 3 5 5 9 10 10 13 11 9 9 7 7 8 6 6 6 7 5 3 5 6 6 8 6 3 6 8 7 10 15 21 33 30 13 5 7 4 6 9 6 6 6 6 7 10 8 6 6 9 9 9 12 14 13 10 6 4 4 3 6 6 5 7 7 5 5 9 11 9 6 7 13 17 17 19 27 35 41 45 48
17 19 21 21 22 13 4 4 6 4 7 11 10 9 11 10 12 14 11 10 11 7 5 7 8 5 4 5 6 5 7 5 4 8 8 7 10 12 20 31 25 11 10 19 19 9 8 8 8 8 9 10 9 8 7 6 6 7 8 13 17 17 15 9 4 5 6 5 6 5 6 6 7 5 10 15 16 12 7 8 16 21 24 29 35 40 43 46
10 8 10 17 18 10 7 11 12 8 8 10 8 8 9 8 11 18 15 10 10 11 8 8 7 4 4 7 7 5 6 6 6 5 5 9 9 7 18 28 18 13 20 26 25 14 5 7 10 15 13 12 11 8 6 6 7 9 9 13 17 18 18 12 6 6 6 4 5 6 5 4 7 7 8 12 15 13 9 6 9 17 24 28 31 37 42 47
6 3 5 10 10 7 8 12 12 9 9 9 5 5 10 10 8 12 12 9 12 14 9 5 5 4 4 8 6 4 7 9 9 7 5 8 9 11 19 18 9 17 26 23 21 13 2 5 10 18 17 15 15 13 10 7 10 13 12 12 16 18 18 14 10 8 8 6 8 7 6 6 8 8 8 11 13 11 7 6 8 15 24 29 30 32 35 39
4 5 9 11 7 4 7 10 12 12 11 10 6 5 10 11 7 8 9 10 14 14 8 5 4 4 6 7 5 4 8 9 8 7 6 8 10 13 16 10 6 19 24 17 16 10 1 5 8 14 19 19 17 17 17 11 8 12 14 14 16 19 20 18 15 10 10 8 9 8 10 10 8 7 8 9 10 8 6 8 10 14 22 30 35 37 38 38
7 8 11 10 6 6 11 15 17 14 11 8 6 7 9 9 8 8 6 6 9 9 8 7 8 9 8 5 3 3 5 6 6 6 7 8 11 12 12 8 5 14 19 14 12 9 2 4 7 9 16 20 18 18 20 16 10 10 12 14 15 18 20 20 16 13 13 11 8 9 12 11 8 8 9 10 12 8 5 4 6 8 12 19 29 34 36 36
8 8 9 8 7 11 14 13 11 9 8 7 5 7 8 8 9 10 7 7 7 7 8 9 12 13 9 6 5 4 5 5 7 8 8 8 8 6 6 5 7 13 15 10 8 8 5 4 8 11 9 17 20 19 19 18 14 10 10 12 14 16 18 18 17 13 11 9 7 9 11 9 7 7 8 12 14 9 6 4 7 9 10 14 21 26 29 34
11 12 12 9 7 8 9 8 7 6 5 4 4 6 7 7 9 11 12 11 9 7 7 9 13 12 7 6 6 7 9 8 9 11 10 10 9 7 6 6 9 14 12 8 8 8 4 5 8 9 5 9 16 20 20 19 14 11 11 12 11 12 14 14 14 11 9 9 8 7 8 7 7 8 8 11 10 8 7 6 8 12 15 16 19 24 30 34
12 12 11 7 4 5 6 7 6 5 4 4 5 7 6 7 9 10 10 9 7 8 11 12 12 10 6 6 8 12 15 13 14 18 17 17 18 15 15 15 15 14 10 8 9 7 4 5 6 5 5 6 11 19 19 15 12 12 12 12 10 9 9 8 9 11 12 12 9 8 9 8 8 8 8 10 8 7 8 9 10 12 17 20 21 23 27 30
Wind_Direction
334 331 329 327 328 326 324 323 320 318 317 315 314 313 311 310 310 310 309 309 308 306 305 304 302 302 304 305 301 297 298 295 294 287 278 277 279 271 227 202 197 201 211 210 207 201 194 192 193 190 188 203 218 228 231 229 232 232 209 220 246 230 212 214 185 193 179 243 186 142 137 131 127 128 134 141 139 144 153 155 152 156 154 156 158 155 156 160
334 332 330 330 331 328 326 323 321 320 318 317 316 314 312 311 311 310 310 309 308 307 306 305 302 303 306 305 303 303 301 299 298 290 284 283 267 243 203 196 200 195 207 208 206 201 194 196 193 186 191 207 221 228 232 226 221 215 174 210 233 218 211 200 184 212 219 233 161 142 136 134 135 136 140 141 142 146 140 137 135 128 138 149 153 154 157 162
337 336 334 333 332 329 326 323 322 319 318 317 315 315 314 312 311 310 310 309 309 309 307 305 304 305 308 306 305 306 306 309 304 296 309 313 264 233 194 189 198 194 198 200 202 203 199 201 193 186 196 214 225 227 232 229 222 214 194 212 237 222 206 211 188 193 245 230 180 159 144 140 143 145 148 149 151 151 145 145 138 134 143 149 155 157 159 163
338 338 336 335 331 329 326 324 322 319 318 316 314 314 312 312 311 310 309 309 309 308 308 306 304 307 310 306 305 308 314 317 303 299 13 353 302 227 191 183 189 189 189 196 206 213 206 205 198 192 198 220 231 230 236 233 224 207 200 219 244 230 200 218 198 191 234 232 182 162 150 149 152 151 153 153 153 158 161 158 153 150 151 153 157 160 162 166
338 337 336 333 330 329 326 323 321 319 318 315 314 312 310 311 309 309 308 308 308 307 307 305 304 310 309 306 306 307 320 332 294 279 24 18 35 184 183 180 184 187 193 199 210 217 208 205 202 199 204 226 230 230 239 231 223 221 223 231 243 241 224 202 197 200 222 226 181 157 154 160 159 157 158 158 162 173 171 166 160 157 157 158 160 162 165 168
338 336 335 332 330 328 325 324 321 319 317 315 314 312 310 309 306 307 305 305 305 304 306 303 304 308 308 307 303 303 305 273 263 256 50 68 81 154 173 184 189 195 205 205 212 214 206 206 206 204 208 227 221 220 237 229 220 233 241 235 239 240 235 188 193 205 213 207 173 161 162 164 162 163 165 166 175 172 169 166 162 161 160 160 160 163 168 171
338 335 333 330 328 326 324 323 321 320 318 316 314 312 311 309 307 306 302 303 301 302 303 301 303 306 309 306 299 300 268 261 273 246 215 131 115 157 160 181 191 198 207 210 215 213 208 209 211 212 210 226 222 224 238 231 216 225 240 235 236 236 235 212 198 207 209 192 170 164 161 169 167 166 169 165 162 161 163 164 162 161 161 160 162 165 170 173
338 335 332 330 327 325 323 321 320 319 317 315 313 312 310 308 307 305 303 301 297 299 299 297 301 302 306 304 301 299 274 276 283 200 218 223 199 192 175 182 190 199 207 216 219 214 211 211 215 217 214 229 225 228 240 238 224 231 244 245 242 234 239 234 203 201 207 184 170 165 160 179 175 163 165 147 146 155 158 160 159 159 161 163 165 168 172 176
337 335 332 330 327 325 323 321 319 317 315 313 312 310 309 308 306 305 302 298 295 296 294 294 297 298 302 299 298 292 279 288 301 191 217 222 210 204 206 210 210 210 215 225 225 218 214 214 217 215 219 241 238 243 247 241 233 237 244 252 248 232 238 240 207 196 202 180 167 166 164 178 162 150 150 143 148 154 155 156 157 158 162 166 168 170 174 178
338 335 333 330 328 326 324 322 320 318 315 311 309 307 307 307 306 304 300 296 294 292 291 290 291 294 295 292 280 255 271 284 281 241 221 222 214 208 217 226 228 227 228 229 228 224 219 217 217 217 235 257 248 250 254 247 263 267 267 271 271 261 243 234 216 195 196 184 168 167 168 154 142 135 131 148 150 153 154 155 157 159 164 169 171 173 176 180
339 337 334 331 329 326 324 323 321 319 316 312 308 305 305 306 305 303 297 293 291 291 289 286 287 288 287 282 237 240 266 261 300 255 222 231 220 214 220 227 234 236 234 234 233 231 226 221 218 222 245 262 252 254 263 263 275 280 279 286 278 283 261 225 215 192 184 191 176 162 147 141 135 135 151 155 153 155 155 154 160 162 166 170 172 175 178 180
339 337 335 332 330 327 325 323 322 321 317 313 310 306 304 304 303 301 294 289 288 289 286 284 285 281 284 275 250 251 257 221 253 274 252 249 226 221 225 228 234 235 233 236 236 233 231 226 222 227 242 261 269 260 276 280 290 289 276 285 272 292 285 219 209 193 174 187 179 149 124 151 137 145 155 157 156 156 155 156 162 164 168 172 174 177 180 182
338 337 336 334 331 329 326 324 323 321 317 314 312 309 307 303 301 298 290 286 286 285 282 280 280 280 281 267 258 261 264 258 269 269 254 246 233 228 228 226 228 226 225 228 233 231 230 228 225 232 244 258 278 271 289 297 308 307 281 268 273 306 293 221 201 197 181 178 174 147 137 193 148 151 155 157 156 154 154 158 163 165 169 172 176 180 182 185
338 336 335 334 332 331 329 327 325 322 318 315 314 314 310 304 300 293 286 285 286 284 281 276 275 280 271 263 267 274 276 270 267 259 242 228 226 226 223 219 216 219 223 225 234 232 226 229 229 238 247 251 262 273 291 302 310 313 308 302 268 284 276 258 197 193 181 177 172 150 159 198 154 156 156 158 159 155 156 161 164 166 169 173 177 182 184 188
338 337 335 334 333 332 331 329 327 324 318 315 318 320 315 307 300 293 288 285 284 281 278 275 273 274 270 269 274 282 278 262 254 246 223 212 215 216 212 208 211 222 235 237 239 233 222 228 231 236 250 252 256 268 286 302 309 313 298 302 286 250 268 287 250 187 162 173 171 148 141 175 158 160 159 162 162 158 159 163 166 168 170 174 178 183 186 190
339 338 335 334 333 332 333 331 329 325 319 318 323 324 319 316 309 302 299 289 283 278 271 268 262 253 264 276 281 284 264 246 250 241 213 210 207 207 209 206 211 215 225 236 241 241 235 234 236 237 246 251 246 242 281 299 308 339 196 259 275 266 275 297 277 193 151 158 174 161 157 162 156 163 162 164 165 162 161 164 168 170 172 175 179 184 187 190
341 340 337 336 334 333 334 332 331 326 320 324 329 329 330 331 328 321 317 306 287 264 242 223 226 253 256 265 277 275 253 236 253 248 218 210 203 204 210 210 212 207 208 224 233 241 241 235 236 241 240 238 203 184 232 256 262 294 234 248 263 252 260 269 288 244 150 154 176 160 155 166 160 163 165 167 168 165 163 166 170 172 174 177 180 184 188 191
342 341 339 338 336 335 334 334 332 325 323 331 337 339 345 349 345 336 334 345 336 240 211 201 163 313 261 252 263 271 263 245 267 269 236 211 206 205 205 209 211 202 200 214 222 231 238 233 212 231 239 221 205 180 199 228 223 243 228 242 269 253 250 239 264 272 162 159 164 158 166 168 159 163 167 170 170 168 167 169 171 173 176 178 180 184 188 193
342 341 339 337 337 336 335 336 333 325 325 338 349 354 5 1 354 350 333 332 323 265 246 209 181 200 261 255 262 275 272 258 283 285 247 210 206 206 202 210 211 201 196 200 214 217 219 227 206 222 235 213 218 197 203 227 213 231 233 227 259 260 259 243 250 250 177 159 161 167 171 160 158 165 169 172 172 171 170 170 172 175 177 179 181 185 189 194
342 341 338 337 337 336 337 338 333 326 325 341 1 12 20 4 358 348 326 312 292 272 271 253 228 237 256 263 260 267 278 269 276 276 247 207 195 202 206 213 210 199 192 177 200 207 199 211 227 219 220 209 225 218 207 225 232 244 252 243 254 260 263 256 256 243 181 161 173 173 166 161 164 168 170 173 173 171 171 171 173 175 177 180 183 186 190 195
342 340 339 337 336 336 337 339 333 325 322 338 2 18 20 1 348 329 325 309 291 276 267 263 250 246 254 259 255 262 286 287 265 249 245 211 190 193 206 208 207 199 195 186 191 201 194 210 230 216 214 210 219 225 210 221 237 245 249 253 260 253 259 263 269 258 202 182 194 177 162 167 172 171 170 170 172 174 175 174 176 177 179 182 184 187 192 196
342 340 339 336 337 336 337 340 332 322 317 330 359 21 18 359 350 334 327 306 292 283 266 265 258 251 255 256 254 258 273 283 262 242 228 204 193 188 193 195 200 206 193 189 189 200 204 218 224 208 206 216 221 228 220 222 230 241 245 251 258 249 263 273 270 269 229 197 199 184 171 175 178 176 170 169 175 178 178 178 178 179 181 183 185 188 192 194
341 340 339 337 338 337 337 339 329 315 315 327 346 10 5 351 347 335 329 304 293 286 265 257 251 247 250 249 249 248 241 247 252 237 207 191 190 186 183 185 200 205 194 197 192 194 210 217 212 199 197 211 225 231 228 231 228 234 238 239 253 246 248 265 261 261 234 208 191 182 174 178 178 176 176 176 177 179 181 182 181 181 183 186 189 190 191 192
339 339 339 339 337 336 338 336 326 313 323 327 334 346 342 334 342 344 334 299 284 284 268 260 247 242 244 241 239 227 217 225 235 223 205 190 184 182 184 185 190 207 209 205 200 205 219 200 196 200 200 204 218 227 224 229 229 232 233 231 247 247 233 241 260 283 259 239 179 159 149 205 183 175 185 183 178 180 182 182 182 185 186 188 190 192 192 193
337 337 338 338 336 335 335 335 328 325 325 326 322 311 315 316 335 352 342 302 272 280 279 265 238 240 241 231 224 212 207 222 229 218 208 201 188 176 182 189 188 210 213 204 204 215 227 204 194 202 206 205 212 222 220 218 223 237 235 231 241 249 247 246 261 297 277 262 194 154 156 262 221 184 184 185 180 183 183 182 184 187 189 189 189 192 194 194
334 334 336 336 336 334 332 334 333 330 329 326 313 299 298 304 325 349 348 321 286 266 256 223 211 228 225 205 198 187 183 228 230 220 213 213 198 182 175 185 190 208 201 197 208 218 220 209 201 204 206 207 211 219 221 211 211 234 227 227 240 249 254 254 258 266 202 243 224 180 180 221 241 207 190 184 183 185 184 186 187 186 189 190 190 193 194 195
331 331 333 333 336 336 331 328 326 332 335 320 313 307 301 307 324 343 359 344 295 219 163 180 195 199 201 185 171 158 139 222 218 218 214 214 204 191 187 186 188 198 181 176 217 208 191 201 210 212 208 209 212 217 218 204 208 233 210 207 236 246 250 251 254 248 219 253 262 209 193 171 197 214 199 185 182 184 187 190 190 187 189 191 192 194 194 195
329 328 330 328 331 334 325 318 319 330 332 315 316 314 313 325 326 339 77 334 306 171 153 188 200 211 191 172 167 168 171 148 163 213 210 209 204 192 193 201 189 183 177 179 216 204 174 197 207 211 214 216 212 215 213 202 215 237 206 200 229 240 248 249 249 249 219 219 264 235 206 194 217 212 196 187 184 186 193 195 193 189 191 193 194 194 195 197
326 326 328 323 323 326 314 308 315 324 322 315 316 317 334 350 341 20 118 262 294 302 257 178 191 173 150 158 176 193 205 158 166 203 197 202 209 202 203 205 191 177 193 198 221 213 186 204 204 204 219 221 210 217 213 205 218 227 204 212 234 238 248 250 243 246 225 203 227 220 197 219 272 220 186 190 191 194 199 200 197 191 191 194 195 195 196 197
326 326 327 320 318 319 309 307 319 323 320 319 317 323 342 347 31 91 200 236 280 284 242 165 176 152 145 148 195 216 228 239 276 168 180 193 204 207 212 204 198 187 202 213 229 227 223 222 211 203 216 214 205 213 214 211 217 215 196 214 244 248 251 267 252 223 226 234 228 212 196 201 257 240 186 191 194 195 198 201 203 196 191 194 196 197 196 196
327 327 326 318 315 313 306 310 331 323 318 318 313 317 333 335 109 154 215 246 293 253 230 229 163 142 156 167 191 210 229 262 262 145 172 187 194 200 193 193 203 200 211 226 231 233 234 235 231 211 213 209 202 211 215 212 213 214 197 196 231 261 268 281 277 190 207 240 240 217 202 198 224 242 200 203 202 195 194 197 201 201 195 195 196 197 197 196
329 330 326 315 308 302 296 302 316 312 309 310 304 311 345 269 225 213 234 329 306 221 107 3 5 104 188 207 188 194 201 225 222 164 172 183 189 198 188 186 189 187 215 222 218 231 232 235 243 236 224 212 199 208 217 213 209 209 197 176 194 226 246 246 243 222 215 240 240 207 200 204 218 220 200 205 208 202 198 198 200 201 199 196 195 197 198 197
328 332 332 318 306 302 300 305 306 301 303 300 285 328 66 210 228 199 223 281 284 257 42 5 341 346 280 252 247 203 196 213 219 185 180 187 189 204 207 202 184 185 205 201 201 221 248 254 240 237 239 220 206 199 206 211 204 203 194 176 187 195 208 225 236 248 234 251 245 195 191 212 227 225 202 199 205 205 202 202 204 203 200 198 196 197 197 197
328 333 333 322 319 327 333 330 313 294 288 272 171 76 149 225 238 172 200 242 289 314 0 360 333 324 305 260 240 199 195 227 219 186 175 184 191 208 212 205 195 191 162 151 193 205 223 252 227 221 224 210 211 205 191 185 190 205 190 164 189 193 191 205 208 219 227 258 263 202 188 197 197 216 204 196 202 203 202 206 208 205 201 200 199 197 196 197
329 332 325 320 339 2 3 358 334 269 247 112 83 119 202 217 279 255 215 252 300 316 336 348 329 303 302 273 243 208 193 214 215 201 189 182 196 203 203 205 198 188 167 179 203 194 215 240 230 226 224 206 214 204 176 167 186 208 178 157 201 192 168 203 204 189 184 235 257 223 206 207 206 227 207 195 199 200 203 207 207 204 201 198 197 195 195 197
331 334 326 324 353 9 2 359 348 232 223 118 110 213 224 231 281 263 318 352 356 340 338 343 353 310 300 283 277 240 204 204 201 207 213 198 202 201 198 206 196 192 187 188 206 176 201 240 237 229 236 224 221 207 177 179 184 203 193 189 195 162 158 213 245 236 182 226 247 226 247 281 275 268 233 198 200 203 204 203 199 198 198 194 193 195 197 197
337 336 328 332 2 358 349 351 342 238 211 157 170 231 237 285 307 313 325 328 328 341 345 342 358 340 306 293 322 329 297 244 196 195 213 202 204 198 199 206 196 198 195 184 212 191 178 247 244 217 233 234 224 223 216 195 172 166 204 202 165 129 161 181 198 247 227 234 263 234 234 257 239 255 257 195 197 210 207 196 192 194 193 193 196 199 200 200
338 333 325 333 11 335 325 334 325 225 202 169 215 248 268 287 309 319 313 314 318 325 329 294 266 276 290 304 322 338 339 322 234 224 224 210 210 190 192 202 197 200 197 187 207 220 181 254 269 217 221 231 222 220 234 222 195 182 188 188 168 168 190 179 179 206 211 224 264 260 241 225 207 229 233 205 204 207 203 195 191 189 188 195 200 203 204 202
341 335 321 300 333 329 324 326 308 205 195 184 217 231 257 259 278 290 295 307 315 308 301 257 251 284 301 318 318 319 326 321 316 318 268 220 230 193 185 190 195 199 196 189 199 219 188 218 270 239 219 218 214 205 216 230 218 199 183 184 182 179 188 193 189 180 184 208 228 244 247 236 224 209 200 218 218 200 196 196 191 190 192 197 201 204 204 201
347 337 304 305 334 333 325 320 298 190 196 224 211 222 259 265 276 280 286 298 303 295 303 302 301 303 304 311 309 305 309 301 293 301 281 261 272 212 189 186 182 190 197 197 199 203 192 199 235 268 247 215 210 203 201 206 210 206 200 200 200 181 175 195 210 175 155 178 191 205 234 252 246 203 189 222 230 203 194 196 193 195 197 199 201 203 202 200
350 330 286 317 344 345 336 330 324 180 223 237 218 235 250 255 268 272 277 283 279 272 274 278 285 283 285 293 292 290 295 290 283 274 258 275 290 272 212 199 187 182 190 200 202 197 195 204 219 245 256 230 225 215 197 195 199 202 205 205 195 172 138 176 239 279 150 176 181 178 231 262 250 197 186 216 230 212 195 197 199 198 197 201 203 203 203 202
347 287 294 322 351 357 354 351 315 320 281 251 265 269 261 260 264 266 272 274 271 268 270 272 276 273 273 276 277 281 282 277 275 263 253 272 270 274 350 5 343 212 193 197 203 198 190 192 210 226 240 239 235 231 209 200 199 199 207 205 185 169 152 169 219 259 221 222 202 169 232 263 248 208 200 215 221 215 206 204 204 200 198 201 204 204 204 204
326 295 305 326 355 356 352 354 298 317 285 290 300 292 286 279 267 266 274 279 281 281 278 283 286 286 303 314 304 311 308 286 267 268 273 274 277 296 7 17 5 329 230 204 200 193 189 195 205 218 246 256 248 257 261 220 202 202 209 199 189 194 178 168 188 181 193 228 199 188 237 263 263 227 227 239 216 199 210 210 209 207 204 203 201 202 204 204
314 303 306 328 357 352 336 208 309 312 311 314 316 313 315 311 289 282 291 307 308 295 284 300 309 317 359 353 337 354 349 325 317 334 311 280 305 331 4 12 3 345 313 321 309 206 204 193 176 195 221 243 250 255 264 239 213 210 206 195 200 198 177 167 175 162 216 223 178 185 233 254 273 228 231 258 251 221 215 208 205 205 205 204 201 200 201 201
321 309 302 322 343 342 315 347 346 340 342 338 336 336 331 325 321 326 332 321 309 306 304 309 320 343 10 0 347 355 4 350 334 352 348 323 319 335 355 354 346 334 330 338 345 326 236 197 172 191 206 211 224 232 222 205 210 221 205 194 200 196 185 180 161 180 227 221 170 187 227 259 289 246 224 247 256 255 250 210 201 202 204 206 202 198 198 199
320 310 299 321 337 340 339 356 5 7 350 343 339 330 328 326 324 327 327 318 309 311 310 309 326 354 13 8 356 342 354 340 310 320 343 334 324 319 339 338 327 336 350 350 352 342 261 218 203 200 205 207 208 222 212 167 183 215 209 195 198 198 194 185 170 194 197 173 201 214 197 233 274 256 224 235 247 254 255 235 214 206 207 210 205 198 197 198
303 285 300 323 335 341 343 354 6 358 330 325 318 300 315 320 318 322 322 323 327 324 312 304 339 17 15 1 354 330 339 331 315 320 333 327 316 310 327 329 326 355 1 357 348 342 283 284 246 211 207 208 203 213 215 175 183 206 205 197 198 198 195 189 199 198 151 156 228 223 179 209 249 252 237 234 240 251 263 260 232 204 199 202 203 202 201 203
271 271 298 310 312 325 337 334 333 329 319 321 312 289 309 314 316 328 325 328 338 337 324 297 321 8 11 359 353 328 337 334 315 325 343 337 326 325 335 338 347 3 5 354 343 346 225 281 277 230 218 211 202 210 214 201 187 199 202 198 196 198 198 199 205 184 149 182 220 192 183 209 232 242 241 235 233 235 243 246 230 212 202 195 194 200 204 206
267 275 294 304 299 298 306 306 310 313 315 324 318 297 306 311 314 322 322 331 334 329 331 325 323 343 354 352 350 324 331 329 306 318 340 336 332 332 331 324 334 2 1 343 334 345 295 268 300 274 233 213 206 209 213 213 200 194 206 203 194 198 201 204 207 188 179 202 202 178 199 217 222 225 233 241 237 221 205 208 191 199 206 195 194 200 203 203
269 273 292 306 299 292 294 296 305 310 310 317 306 291 299 306 314 321 326 325 310 309 337 334 321 331 340 332 324 301 298 300 286 301 322 322 329 338 322 317 323 333 341 335 326 342 339 291 317 319 259 216 210 207 210 217 205 192 208 209 200 201 201 204 208 196 191 208 197 187 208 229 242 231 229 244 240 216 188 175 169 182 187 187 196 202 201 202
278 281 289 295 293 293 295 300 306 302 294 299 296 303 315 316 313 315 311 300 282 285 326 324 314 321 320 307 304 284 282 283 273 283 297 292 293 296 285 293 309 312 321 325 310 317 320 295 317 337 309 230 213 205 210 217 210 206 217 211 203 204 202 205 205 189 181 194 195 199 211 232 249 234 231 244 233 210 211 196 181 197 193 185 193 196 196 200
291 293 294 291 285 292 297 298 301 294 284 301 311 308 304 295 296 303 304 295 278 293 316 315 306 310 306 286 283 281 282 282 279 282 284 279 276 270 263 266 273 279 288 301 298 291 286 297 315 343 333 280 224 204 204 211 216 228 226 201 188 198 202 211 214 201 196 192 187 204 216 218 219 204 209 230 223 209 219 196 171 186 191 186 190 195 197 200
Height
1527 1526 1525 1524 1523 1522 1521 1520 1519 1518 1517 1516 1515 1514 1513 1512 1511 1510 1509 1508 1507 1506 1505 1504 1502 1502 1501 1500 1498 1497 1496 1495 1493 1492 1488 1484 1485 1488 1489 1491 1492 1493 1493 1495 1496 1497 1497 1498 1500 1503 1505 1506 1507 1505 1505 1505 1505 1507 1509 1515 1516 1512 1507 1496 1494 1495 1493 1493 1489 1487 1488 1491 1496 1498 1500 1503 1505 1506 1511 1515 1515 1517 1517 1518 1520 1523 1526 1529
1526 1525 1523 1522 1521 1520 1519 1518 1517 1516 1515 1514 1514 1513 1512 1511 1510 1509 1507 1506 1505 1504 1503 1502 1501 1500 1499 1498 1497 1495 1494 1492 1490 1487 1484 1481 1482 1483 1485 1488 1490 1491 1491 1492 1493 1494 1495 1495 1497 1501 1503 1504 1504 1502 1503 1502 1502 1503 1505 1513 1511 1503 1496 1487 1487 1487 1486 1490 1489 1487 1487 1489 1492 1495 1498 1503 1507 1508 1511 1516 1517 1518 1520 1522 1523 1525 1528 1529
1524 1523 1522 1521 1520 1518 1517 1516 1515 1514 1513 1512 1511 1511 1510 1509 1508 1507 1506 1505 1503 1502 1501 1500 1499 1498 1498 1496 1495 1494 1492 1490 1487 1483 1481 1479 1478 1478 1481 1484 1487 1488 1489 1490 1492 1493 1494 1494 1497 1500 1502 1502 1501 1501 1501 1499 1499 1498 1502 1511 1502 1491 1489 1484 1483 1482 1482 1485 1486 1488 1486 1488 1490 1492 1496 1500 1505 1507 1509 1512 1514 1517 1520 1522 1524 1525 1528 1529
1523 1522 1521 1520 1518 1517 1516 1514 1513 1512 1511 1510 1509 1509 1508 1507 1506 1505 1504 1503 1502 1500 1499 1498 1498 1497 1496 1495 1494 1493 1491 1489 1484 1480 1479 1478 1476 1476 1479 1482 1484 1486 1488 1490 1492 1494 1495 1496 1498 1499 1501 1501 1498 1500 1498 1496 1497 1496 1498 1502 1490 1483 1489 1486 1482 1481 1479 1481 1484 1486 1487 1488 1489 1491 1493 1496 1505 1509 1506 1506 1506 1510 1515 1520 1523 1525 1527 1529
1522 1521 1519 1518 1517 1515 1514 1513 1512 1510 1509 1508 1507 1506 1505 1505 1504 1503 1502 1501 1500 1499 1497 1496 1495 1496 1495 1493 1493 1491 1492 1491 1482 1478 1479 1478 1476 1476 1479 1482 1484 1485 1487 1490 1491 1493 1495 1496 1498 1499 1500 1498 1497 1499 1495 1491 1495 1495 1492 1489 1483 1482 1488 1485 1481 1480 1477 1479 1482 1483 1486 1488 1488 1489 1491 1492 1500 1503 1501 1502 1503 1506 1510 1514 1519 1523 1526 1528
1521 1519 1518 1516 1515 1514 1512 1511 1510 1509 1507 1506 1505 1504 1503 1502 1501 1501 1500 1498 1498 1497 1495 1494 1493 1494 1493 1492 1492 1490 1492 1490 1480 1478 1480 1478 1479 1479 1481 1483 1484 1485 1486 1488 1490 1492 1493 1494 1496 1497 1497 1496 1496 1495 1490 1488 1493 1495 1489 1483 1481 1480 1483 1482 1480 1478 1476 1477 1480 1481 1483 1485 1486 1488 1488 1488 1493 1494 1497 1500 1502 1505 1508 1512 1517 1521 1524 1526
1520 1518 1517 1515 1514 1512 1510 1509 1508 1506 1505 1504 1503 1502 1501 1500 1499 1498 1497 1497 1496 1494 1494 1492 1491 1491 1492 1491 1490 1489 1489 1483 1476 1478 1479 1478 1480 1480 1482 1483 1484 1485 1485 1486 1488 1489 1490 1492 1494 1493 1494 1494 1493 1490 1486 1486 1488 1491 1487 1480 1479 1479 1479 1479 1477 1476 1475 1476 1477 1478 1480 1482 1485 1487 1488 1489 1491 1494 1499 1502 1503 1507 1510 1513 1516 1519 1522 1524
1519 1517 1515 1514 1512 1511 1509 1508 1506 1505 1503 1502 1500 1499 1498 1497 1497 1496 1495 1494 1493 1493 1492 1490 1490 1489 1489 1490 1488 1488 1485 1478 1474 1476 1477 1478 1479 1480 1481 1481 1482 1483 1483 1485 1485 1487 1488 1489 1490 1491 1493 1490 1487 1485 1483 1485 1485 1485 1483 1478 1478 1478 1476 1475 1475 1475 1474 1474 1474 1475 1477 1479 1482 1484 1487 1490 1492 1495 1500 1504 1505 1508 1512 1514 1516 1519 1521 1524
1518 1516 1514 1512 1511 1509 1507 1506 1504 1503 1501 1499 1498 1497 1496 1495 1494 1493 1492 1491 1491 1491 1489 1488 1488 1487 1487 1487 1488 1487 1480 1473 1473 1475 1475 1476 1477 1479 1479 1479 1481 1481 1482 1483 1484 1486 1486 1486 1487 1488 1489 1486 1485 1483 1480 1486 1486 1479 1479 1478 1476 1476 1473 1473 1474 1473 1473 1473 1472 1474 1476 1477 1479 1482 1489 1489 1491 1496 1500 1504 1506 1508 1513 1515 1517 1519 1520 1523
1517 1514 1513 1511 1509 1507 1505 1504 1502 1500 1499 1497 1496 1494 1493 1492 1491 1490 1489 1488 1488 1488 1487 1487 1486 1486 1485 1485 1487 1484 1475 1472 1473 1473 1474 1475 1475 1477 1477 1478 1479 1480 1480 1481 1482 1483 1483 1484 1484 1487 1488 1485 1483 1481 1478 1483 1482 1475 1475 1475 1474 1473 1470 1469 1471 1471 1472 1472 1470 1472 1476 1477 1476 1482 1494 1493 1490 1496 1500 1504 1506 1508 1512 1515 1517 1519 1520 1522
1515 1513 1511 1509 1507 1505 1503 1502 1500 1498 1496 1494 1493 1492 1491 1490 1489 1488 1486 1486 1485 1485 1485 1484 1484 1484 1483 1482 1484 1478 1470 1471 1472 1471 1473 1473 1474 1475 1475 1476 1477 1478 1479 1479 1480 1481 1481 1482 1484 1488 1488 1484 1481 1479 1476 1476 1476 1474 1474 1474 1472 1469 1467 1466 1466 1468 1471 1473 1469 1468 1474 1478 1478 1482 1491 1492 1490 1493 1497 1502 1505 1508 1511 1514 1517 1519 1521 1522
1514 1512 1510 1508 1506 1504 1502 1500 1498 1496 1493 1492 1490 1489 1488 1487 1486 1485 1483 1482 1482 1483 1482 1482 1482 1481 1481 1480 1475 1469 1468 1470 1470 1471 1472 1471 1473 1474 1474 1475 1475 1476 1477 1477 1478 1479 1480 1481 1484 1487 1485 1482 1481 1480 1477 1474 1474 1472 1472 1476 1473 1468 1468 1463 1461 1464 1468 1472 1468 1469 1481 1486 1483 1483 1485 1488 1491 1491 1494 1499 1503 1506 1510 1513 1516 1518 1520 1522
1513 1511 1509 1507 1504 1502 1500 1498 1496 1494 1491 1489 1487 1486 1485 1484 1484 1482 1480 1479 1480 1480 1480 1480 1479 1479 1480 1473 1462 1462 1468 1469 1468 1470 1470 1471 1472 1472 1473 1473 1473 1475 1475 1476 1476 1477 1479 1480 1482 1483 1482 1482 1481 1480 1475 1471 1472 1472 1470 1475 1476 1477 1474 1461 1457 1461 1464 1468 1465 1470 1492 1497 1486 1483 1484 1487 1491 1492 1495 1498 1502 1505 1508 1512 1515 1517 1519 1522
1512 1510 1507 1505 1503 1501 1499 1496 1494 1492 1489 1487 1485 1484 1483 1481 1481 1479 1477 1477 1477 1477 1477 1477 1477 1477 1477 1464 1455 1461 1465 1465 1464 1464 1466 1469 1469 1470 1471 1472 1473 1474 1474 1475 1475 1476 1477 1479 1481 1481 1481 1481 1479 1477 1475 1472 1473 1474 1473 1475 1478 1485 1477 1458 1455 1460 1464 1467 1461 1468 1493 1496 1487 1483 1483 1486 1488 1490 1493 1497 1500 1503 1506 1510 1512 1515 1517 1519
1510 1508 1506 1504 1502 1499 1497 1495 1492 1490 1487 1484 1482 1481 1480 1479 1477 1475 1475 1474 1474 1475 1474 1475 1474 1475 1473 1459 1453 1459 1460 1459 1459 1459 1463 1465 1466 1467 1468 1470 1471 1472 1473 1474 1474 1475 1477 1478 1480 1479 1479 1478 1478 1479 1479 1477 1475 1475 1482 1484 1481 1484 1477 1460 1453 1456 1463 1466 1460 1469 1490 1493 1486 1483 1482 1486 1488 1488 1491 1494 1498 1500 1503 1507 1510 1513 1516 1518
1508 1506 1504 1502 1500 1498 1496 1493 1491 1488 1485 1482 1480 1479 1478 1476 1474 1473 1472 1471 1472 1472 1472 1473 1472 1473 1471 1459 1453 1456 1455 1455 1454 1457 1460 1461 1463 1464 1466 1469 1469 1471 1472 1472 1473 1474 1476 1476 1477 1477 1476 1477 1478 1481 1484 1486 1482 1478 1484 1489 1483 1482 1480 1469 1456 1450 1455 1463 1463 1468 1483 1489 1485 1483 1482 1486 1488 1489 1490 1492 1496 1498 1501 1504 1507 1510 1513 1516
1507 1505 1502 1500 1498 1496 1494 1492 1489 1486 1483 1481 1479 1477 1475 1474 1472 1471 1470 1470 1470 1469 1470 1470 1470 1472 1466 1455 1452 1452 1451 1453 1454 1456 1457 1458 1460 1462 1465 1467 1467 1470 1470 1471 1473 1472 1474 1474 1475 1475 1474 1474 1475 1480 1490 1496 1492 1485 1484 1486 1482 1479 1481 1477 1463 1452 1451 1460 1467 1468 1475 1482 1480 1479 1481 1484 1486 1488 1489 1491 1493 1496 1499 1501 1504 1508 1511 1513
1505 1503 1501 1499 1497 1494 1492 1490 1488 1485 1482 1480 1478 1476 1474 1472 1471 1470 1469 1469 1469 1469 1470 1468 1470 1472 1460 1449 1450 1449 1449 1453 1453 1454 1455 1455 1458 1460 1463 1464 1466 1468 1468 1470 1470 1470 1472 1471 1472 1475 1474 1474 1475 1480 1491 1494 1489 1487 1486 1486 1482 1478 1479 1478 1468 1457 1453 1459 1467 1470 1474 1476 1476 1476 1479 1481 1483 1484 1485 1487 1490 1493 1496 1499 1502 1505 1508 1510
1504 1502 1499 1497 1495 1493 1491 1489 1486 1483 1481 1479 1478 1475 1473 1471 1469 1469 1468 1468 1469 1469 1468 1465 1465 1465 1454 1445 1447 1446 1447 1450 1450 1451 1452 1453 1455 1458 1460 1463 1465 1466 1466 1469 1469 1467 1469 1471 1473 1477 1477 1476 1475 1476 1483 1483 1480 1481 1481 1482 1483 1481 1478 1473 1465 1455 1452 1461 1466 1468 1472 1474 1475 1477 1477 1478 1480 1481 1482 1484 1487 1491 1493 1496 1499 1501 1504 1506
1503 1501 1499 1496 1494 1491 1489 1488 1485 1483 1480 1478 1477 1474 1472 1472 1470 1469 1467 1466 1465 1463 1462 1460 1458 1454 1448 1444 1444 1445 1446 1447 1448 1448 1449 1451 1453 1455 1458 1461 1462 1463 1464 1467 1469 1465 1467 1474 1475 1474 1475 1474 1472 1472 1474 1475 1475 1476 1478 1480 1479 1480 1476 1467 1462 1454 1450 1462 1468 1463 1466 1469 1471 1472 1471 1474 1477 1478 1481 1482 1484 1488 1490 1492 1495 1497 1499 1501
1502 1500 1497 1495 1493 1490 1488 1486 1484 1482 1480 1479 1478 1476 1475 1477 1477 1474 1467 1459 1456 1458 1456 1453 1454 1449 1444 1443 1441 1444 1447 1445 1444 1444 1446 1449 1450 1453 1456 1457 1460 1462 1462 1463 1466 1465 1467 1473 1471 1468 1469 1469 1469 1469 1470 1473 1474 1475 1478 1480 1478 1478 1473 1462 1460 1456 1449 1461 1468 1461 1465 1469 1466 1466 1466 1469 1474 1475 1476 1478 1481 1483 1486 1488 1490 1492 1494 1496
1502 1499 1496 1494 1491 1489 1487 1485 1483 1481 1480 1480 1479 1479 1478 1480 1481 1479 1473 1458 1447 1450 1450 1445 1447 1443 1438 1440 1438 1444 1451 1447 1443 1441 1442 1446 1447 1450 1451 1453 1458 1460 1460 1461 1465 1468 1469 1469 1465 1463 1464 1465 1467 1467 1469 1472 1473 1476 1476 1479 1480 1473 1469 1463 1458 1456 1451 1459 1468 1463 1465 1468 1463 1461 1463 1464 1466 1469 1470 1471 1475 1478 1481 1484 1485 1487 1490 1494
1501 1498 1495 1492 1490 1488 1486 1484 1482 1480 1480 1480 1479 1479 1478 1479 1479 1476 1475 1464 1444 1439 1441 1437 1437 1434 1431 1434 1434 1441 1448 1444 1442 1439 1439 1442 1442 1445 1447 1450 1456 1458 1459 1460 1463 1469 1471 1465 1459 1460 1461 1464 1468 1467 1469 1472 1472 1474 1474 1479 1478 1467 1471 1473 1461 1456 1453 1453 1460 1461 1464 1467 1464 1463 1462 1461 1461 1464 1467 1468 1469 1472 1475 1477 1480 1482 1485 1489
1500 1497 1495 1491 1489 1486 1484 1483 1481 1479 1480 1479 1478 1478 1478 1478 1477 1474 1471 1466 1448 1432 1428 1428 1428 1425 1422 1425 1430 1436 1439 1438 1438 1435 1435 1439 1439 1442 1444 1446 1453 1457 1456 1456 1458 1463 1464 1458 1454 1457 1460 1463 1467 1467 1468 1473 1475 1472 1470 1474 1471 1463 1468 1470 1461 1457 1454 1451 1453 1460 1472 1474 1469 1470 1466 1461 1461 1462 1463 1466 1468 1469 1470 1472 1475 1478 1480 1482
1499 1497 1494 1491 1489 1485 1483 1482 1479 1480 1478 1477 1478 1477 1477 1476 1475 1474 1470 1467 1454 1432 1422 1421 1420 1417 1413 1421 1427 1428 1433 1433 1430 1430 1431 1434 1436 1438 1441 1443 1449 1454 1454 1454 1457 1460 1458 1453 1452 1457 1459 1460 1465 1466 1465 1469 1475 1474 1467 1464 1462 1459 1462 1463 1461 1463 1467 1467 1457 1460 1485 1487 1471 1469 1467 1461 1462 1463 1462 1463 1465 1467 1468 1470 1473 1475 1477 1478
1498 1497 1493 1491 1488 1484 1482 1480 1479 1480 1477 1477 1477 1474 1476 1475 1474 1474 1470 1473 1460 1430 1420 1419 1415 1412 1409 1416 1421 1425 1436 1428 1419 1426 1429 1431 1433 1434 1439 1441 1442 1448 1449 1450 1454 1454 1450 1448 1450 1454 1457 1458 1462 1463 1460 1462 1473 1474 1462 1455 1456 1456 1459 1460 1461 1469 1477 1475 1458 1454 1478 1487 1476 1470 1465 1460 1462 1462 1461 1461 1461 1463 1465 1467 1468 1471 1473 1476
1497 1495 1493 1491 1489 1485 1481 1479 1480 1479 1477 1477 1475 1474 1475 1473 1474 1472 1470 1479 1459 1422 1416 1417 1412 1411 1407 1410 1414 1423 1432 1419 1414 1423 1423 1426 1431 1430 1438 1440 1439 1443 1441 1448 1456 1448 1442 1448 1450 1451 1454 1457 1459 1460 1455 1455 1467 1466 1452 1451 1455 1454 1457 1458 1460 1469 1471 1467 1460 1454 1463 1477 1479 1470 1459 1457 1462 1463 1462 1461 1459 1459 1460 1462 1463 1465 1468 1471
1497 1494 1493 1490 1489 1488 1483 1480 1480 1478 1478 1476 1473 1475 1473 1471 1474 1470 1475 1481 1448 1411 1412 1413 1409 1410 1407 1411 1412 1413 1415 1409 1413 1418 1415 1424 1428 1426 1433 1434 1436 1440 1435 1445 1455 1443 1437 1445 1447 1448 1453 1455 1454 1452 1448 1450 1458 1454 1446 1449 1451 1451 1453 1453 1457 1465 1463 1467 1473 1463 1460 1475 1477 1463 1456 1457 1462 1465 1462 1458 1455 1454 1455 1456 1458 1460 1462 1465
1496 1493 1492 1488 1487 1487 1483 1481 1480 1477 1477 1475 1473 1474 1471 1472 1472 1468 1481 1477 1434 1407 1410 1408 1408 1410 1408 1413 1413 1409 1408 1407 1409 1409 1411 1422 1424 1424 1429 1428 1431 1437 1434 1439 1445 1439 1435 1437 1437 1442 1448 1449 1447 1444 1441 1446 1450 1444 1443 1447 1447 1448 1450 1450 1456 1460 1461 1471 1477 1464 1460 1475 1476 1462 1460 1463 1463 1463 1457 1452 1448 1447 1449 1451 1453 1455 1457 1460
1494 1492 1491 1487 1484 1484 1481 1479 1479 1478 1476 1474 1474 1472 1470 1473 1471 1476 1489 1467 1427 1412 1409 1406 1409 1409 1409 1415 1416 1412 1409 1408 1406 1406 1412 1417 1420 1423 1425 1426 1429 1434 1435 1436 1437 1435 1430 1430 1431 1434 1437 1437 1438 1438 1436 1439 1440 1438 1442 1448 1450 1451 1450 1452 1454 1455 1467 1475 1469 1457 1452 1465 1474 1465 1458 1456 1452 1448 1448 1447 1444 1442 1444 1446 1447 1450 1452 1455
1493 1491 1489 1486 1483 1481 1478 1477 1477 1477 1475 1474 1472 1471 1472 1471 1472 1482 1477 1445 1423 1416 1407 1408 1410 1407 1410 1413 1414 1414 1412 1410 1406 1408 1414 1416 1420 1423 1424 1428 1431 1435 1441 1439 1435 1433 1431 1432 1430 1426 1427 1428 1432 1436 1433 1432 1433 1437 1444 1450 1458 1459 1455 1459 1457 1458 1475 1477 1460 1450 1446 1455 1468 1461 1449 1443 1434 1431 1435 1439 1439 1438 1439 1440 1442 1445 1447 1450
1492 1489 1486 1484 1482 1480 1477 1475 1476 1476 1474 1473 1473 1471 1472 1474 1475 1474 1456 1432 1426 1417 1408 1413 1413 1410 1413 1410 1410 1411 1411 1411 1407 1408 1413 1415 1419 1420 1420 1425 1428 1438 1447 1441 1438 1437 1434 1432 1427 1424 1423 1422 1429 1437 1436 1432 1432 1438 1445 1452 1464 1471 1470 1473 1469 1465 1473 1466 1449 1444 1446 1452 1454 1443 1436 1435 1430 1427 1427 1427 1429 1429 1431 1434 1437 1439 1442 1445
1490 1487 1484 1481 1480 1478 1476 1474 1474 1474 1473 1472 1473 1471 1474 1479 1471 1457 1444 1435 1425 1410 1409 1416 1412 1413 1417 1414 1412 1409 1409 1411 1407 1408 1410 1412 1418 1418 1416 1416 1417 1430 1439 1437 1440 1443 1440 1433 1425 1426 1423 1416 1422 1433 1439 1438 1435 1438 1444 1450 1462 1472 1480 1484 1476 1469 1468 1457 1442 1438 1445 1452 1447 1433 1425 1425 1423 1420 1420 1420 1421 1420 1422 1427 1429 1433 1437 1440
1487 1485 1481 1478 1477 1477 1474 1472 1471 1471 1472 1471 1472 1472 1477 1479 1462 1445 1443 1439 1423 1409 1414 1420 1415 1413 1413 1414 1412 1407 1410 1411 1404 1407 1411 1412 1420 1420 1417 1416 1414 1420 1427 1433 1439 1441 1447 1442 1426 1423 1420 1413 1415 1421 1426 1429 1431 1433 1432 1440 1451 1454 1465 1474 1471 1469 1466 1455 1444 1441 1447 1451 1444 1428 1415 1411 1412 1412 1414 1415 1414 1416 1418 1422 1426 1431 1435 1437
1485 1483 1479 1475 1476 1475 1471 1470 1469 1470 1471 1470 1471 1475 1474 1468 1455 1446 1442 1437 1429 1422 1421 1423 1420 1416 1411 1409 1406 1400 1405 1408 1403 1406 1409 1411 1416 1416 1414 1414 1413 1416 1423 1433 1435 1431 1441 1437 1416 1411 1410 1407 1412 1412 1411 1421 1430 1429 1424 1434 1441 1435 1442 1454 1455 1453 1453 1453 1447 1441 1441 1435 1424 1413 1403 1402 1406 1407 1409 1410 1411 1416 1418 1421 1426 1429 1432 1433
1483 1480 1477 1473 1473 1472 1469 1469 1467 1468 1470 1470 1473 1474 1467 1458 1451 1447 1440 1436 1439 1438 1432 1428 1424 1422 1419 1410 1405 1401 1399 1400 1402 1406 1407 1407 1409 1409 1409 1407 1405 1409 1415 1424 1427 1426 1434 1429 1409 1408 1409 1403 1407 1406 1404 1414 1425 1425 1425 1429 1426 1420 1429 1445 1451 1443 1445 1457 1451 1437 1435 1428 1419 1414 1404 1403 1407 1406 1407 1408 1409 1413 1416 1419 1424 1425 1427 1428
1482 1477 1473 1471 1471 1469 1468 1468 1466 1466 1467 1469 1473 1469 1461 1455 1450 1447 1443 1441 1444 1444 1443 1443 1435 1431 1429 1419 1412 1409 1405 1401 1401 1404 1405 1405 1403 1400 1402 1401 1399 1401 1404 1412 1418 1417 1424 1425 1409 1407 1412 1402 1398 1402 1401 1401 1408 1419 1426 1421 1416 1419 1424 1435 1449 1449 1451 1462 1452 1435 1435 1434 1431 1427 1412 1407 1412 1409 1408 1409 1409 1410 1413 1417 1419 1420 1421 1422
1482 1478 1472 1469 1469 1467 1466 1466 1464 1465 1466 1468 1471 1465 1459 1456 1451 1448 1447 1443 1443 1443 1447 1451 1441 1431 1430 1427 1421 1415 1414 1413 1407 1405 1404 1402 1397 1391 1393 1398 1396 1395 1396 1403 1412 1410 1413 1424 1413 1402 1407 1402 1394 1403 1409 1400 1396 1405 1411 1408 1414 1430 1434 1434 1445 1451 1455 1462 1452 1437 1434 1432 1431 1426 1413 1409 1411 1408 1406 1407 1408 1409 1410 1412 1414 1414 1415 1417
1484 1479 1471 1467 1467 1465 1463 1463 1462 1463 1465 1466 1468 1464 1458 1455 1452 1451 1449 1446 1445 1444 1445 1445 1439 1431 1429 1430 1427 1420 1420 1421 1416 1414 1410 1402 1393 1384 1382 1390 1392 1391 1392 1397 1406 1406 1407 1421 1420 1401 1397 1399 1397 1404 1413 1409 1400 1398 1402 1404 1408 1419 1426 1428 1432 1437 1446 1455 1453 1444 1438 1429 1420 1412 1408 1406 1403 1402 1403 1403 1404 1404 1404 1405 1406 1408 1411 1414
1486 1482 1471 1465 1466 1463 1459 1459 1459 1461 1463 1462 1462 1460 1455 1453 1452 1450 1450 1449 1447 1445 1444 1441 1440 1438 1433 1431 1430 1425 1422 1421 1418 1418 1414 1402 1394 1385 1377 1380 1385 1388 1389 1390 1396 1401 1404 1414 1419 1406 1396 1399 1401 1400 1402 1405 1404 1404 1407 1410 1410 1411 1415 1420 1422 1421 1429 1443 1448 1448 1444 1427 1408 1398 1399 1398 1394 1394 1396 1397 1397 1396 1395 1397 1399 1402 1406 1409
1487 1485 1471 1464 1466 1462 1457 1457 1458 1459 1460 1458 1457 1456 1453 1452 1451 1449 1448 1448 1446 1444 1442 1440 1440 1439 1436 1433 1431 1427 1423 1420 1417 1415 1411 1403 1399 1393 1381 1376 1379 1382 1386 1391 1393 1397 1402 1408 1413 1410 1402 1402 1399 1389 1386 1391 1394 1399 1404 1405 1408 1411 1415 1425 1429 1420 1417 1427 1433 1439 1441 1423 1398 1389 1391 1390 1388 1388 1388 1389 1390 1388 1389 1392 1394 1396 1400 1403
1489 1484 1470 1464 1468 1463 1460 1460 1458 1458 1459 1457 1455 1453 1451 1449 1448 1447 1447 1445 1444 1442 1438 1437 1436 1435 1433 1429 1425 1424 1422 1418 1415 1412 1407 1402 1399 1395 1389 1384 1383 1380 1380 1387 1386 1384 1389 1398 1406 1407 1401 1397 1391 1381 1379 1381 1382 1388 1394 1395 1401 1407 1411 1423 1432 1424 1417 1419 1419 1425 1432 1415 1389 1382 1385 1385 1384 1384 1384 1385 1384 1383 1384 1386 1388 1392 1395 1398
1489 1481 1467 1465 1469 1466 1465 1465 1461 1459 1458 1455 1453 1451 1449 1448 1447 1446 1445 1444 1442 1440 1437 1435 1433 1432 1432 1429 1426 1426 1423 1416 1411 1408 1404 1400 1394 1392 1393 1393 1392 1387 1380 1381 1380 1378 1383 1392 1401 1404 1398 1390 1384 1379 1377 1376 1379 1386 1388 1388 1394 1400 1403 1408 1414 1414 1416 1418 1418 1427 1431 1410 1386 1379 1380 1380 1381 1381 1381 1381 1381 1381 1381 1383 1386 1389 1392 1394
1487 1479 1466 1466 1469 1468 1469 1469 1465 1462 1459 1455 1454 1452 1450 1448 1447 1446 1445 1445 1443 1440 1437 1435 1433 1433 1434 1433 1431 1431 1429 1423 1416 1411 1410 1407 1398 1393 1395 1397 1398 1397 1393 1390 1386 1382 1383 1387 1395 1406 1410 1405 1398 1393 1389 1383 1382 1384 1384 1383 1385 1389 1396 1401 1403 1408 1414 1414 1415 1425 1427 1408 1388 1379 1378 1377 1378 1379 1379 1379 1380 1381 1382 1383 1384 1385 1388 1390
1486 1478 1468 1467 1469 1469 1469 1469 1467 1465 1463 1460 1459 1456 1453 1450 1448 1446 1446 1445 1443 1441 1439 1436 1434 1434 1434 1434 1433 1432 1432 1431 1428 1421 1418 1414 1405 1397 1398 1401 1401 1400 1398 1395 1390 1385 1379 1377 1383 1397 1409 1412 1408 1400 1393 1387 1383 1380 1379 1379 1380 1384 1392 1399 1404 1412 1416 1413 1411 1416 1416 1404 1389 1382 1380 1378 1376 1376 1377 1377 1378 1379 1380 1382 1382 1383 1385 1387
1488 1483 1473 1467 1467 1467 1468 1468 1468 1468 1467 1465 1463 1460 1456 1453 1449 1446 1446 1445 1442 1439 1438 1436 1434 1434 1434 1434 1435 1434 1432 1432 1432 1428 1423 1421 1414 1405 1404 1406 1404 1400 1397 1394 1390 1386 1379 1371 1369 1375 1383 1388 1389 1384 1378 1376 1380 1382 1380 1379 1380 1380 1384 1392 1402 1408 1410 1411 1411 1407 1404 1402 1394 1386 1384 1380 1375 1375 1376 1376 1376 1377 1377 1379 1380 1381 1382 1383
1490 1487 1479 1474 1470 1468 1468 1468 1469 1470 1469 1468 1467 1462 1458 1456 1452 1448 1446 1445 1443 1440 1438 1435 1435 1436 1437 1437 1437 1437 1434 1431 1429 1427 1427 1426 1419 1410 1407 1408 1406 1402 1398 1396 1392 1388 1388 1382 1370 1365 1367 1367 1368 1370 1368 1368 1373 1377 1377 1378 1378 1377 1380 1388 1396 1398 1399 1408 1412 1402 1397 1400 1395 1387 1385 1382 1376 1374 1375 1373 1373 1373 1372 1374 1378 1381 1383 1383
1488 1486 1482 1481 1479 1475 1472 1470 1469 1469 1468 1467 1466 1462 1459 1457 1455 1453 1449 1446 1444 1443 1440 1437 1436 1437 1438 1439 1440 1440 1437 1434 1430 1427 1428 1426 1420 1412 1406 1403 1403 1402 1401 1401 1397 1394 1396 1391 1374 1365 1363 1360 1360 1362 1362 1364 1368 1368 1371 1374 1374 1375 1378 1382 1387 1388 1390 1398 1402 1395 1393 1395 1390 1384 1381 1378 1374 1373 1373 1369 1367 1368 1369 1369 1372 1377 1379 1380
1487 1485 1482 1482 1482 1478 1476 1474 1471 1470 1468 1467 1466 1463 1459 1458 1456 1454 1452 1449 1447 1445 1444 1443 1439 1437 1437 1438 1439 1441 1440 1437 1434 1430 1429 1428 1426 1422 1414 1407 1403 1402 1406 1407 1401 1396 1397 1389 1376 1370 1364 1358 1358 1358 1357 1361 1365 1365 1366 1368 1369 1371 1373 1375 1379 1382 1382 1385 1387 1387 1389 1388 1384 1379 1375 1371 1369 1368 1368 1367 1365 1366 1369 1369 1370 1372 1374 1376
1485 1485 1483 1481 1481 1478 1476 1475 1473 1471 1468 1467 1467 1463 1459 1459 1458 1455 1453 1452 1451 1446 1445 1446 1443 1438 1438 1437 1438 1439 1438 1437 1435 1431 1429 1430 1429 1427 1424 1417 1408 1404 1408 1411 1405 1400 1400 1392 1381 1375 1368 1358 1354 1355 1355 1357 1362 1365 1365 1363 1364 1367 1370 1371 1374 1376 1380 1383 1383 1383 1387 1386 1379 1373 1369 1366 1365 1364 1364 1365 1365 1365 1366 1368 1369 1370 1372 1374
1484 1484 1483 1482 1480 1476 1475 1473 1472 1471 1469 1467 1466 1463 1461 1461 1460 1458 1455 1451 1450 1448 1446 1447 1444 1439 1438 1437 1437 1437 1434 1433 1433 1429 1428 1429 1428 1428 1426 1421 1417 1412 1410 1412 1409 1404 1402 1397 1387 1384 1382 1366 1352 1353 1356 1354 1358 1365 1364 1361 1363 1365 1367 1368 1368 1370 1375 1380 1381 1384 1387 1384 1374 1368 1366 1363 1363 1364 1364 1363 1364 1364 1364 1365 1367 1369 1370 1372
1483 1483 1482 1482 1480 1476 1474 1473 1471 1471 1469 1465 1464 1463 1463 1461 1458 1459 1458 1449 1446 1447 1447 1446 1444 1442 1439 1437 1435 1433 1431 1430 1429 1426 1426 1425 1423 1424 1422 1418 1419 1418 1413 1412 1411 1405 1402 1400 1394 1395 1396 1377 1353 1350 1354 1358 1368 1370 1357 1354 1359 1360 1362 1363 1363 1363 1364 1367 1375 1380 1377 1370 1363 1362 1364 1363 1362 1364 1363 1361 1362 1363 1362 1363 1365 1367 1368 1370